• In Hungary
  • List of Countries
  • For 7 days
  • Water Temperature
  • Satellite Maps
  • Weather Map
  • News
  • Weather Widgets
  • user-avatar
    Login

    Hourly Weather Chlebna

    Today, 23 June, Saturday

    Time Temperature Precipitation Wind Pressure Humidity
    00:00 +10°C° 0 mm 1 mps 740 mmHg 84%
    01:00 +9°C° 0 mm 1 mps 740 mmHg 87%
    02:00 +8°C° 0 mm 2 mps 740 mmHg 89%
    03:00 +7°C° 0 mm 2 mps 740 mmHg 92%
    04:00 +7°C° 0 mm 2 mps 740 mmHg 94%
    05:00 +9°C° 0.1 mm 2 mps 740 mmHg 89%
    06:00 +10°C° 0.1 mm 3 mps 740 mmHg 84%
    07:00 +12°C° 0.1 mm 3 mps 740 mmHg 80%
    08:00 +13°C° 0.4 mm 4 mps 740 mmHg 76%
    09:00 +14°C° 0.4 mm 4 mps 739 mmHg 72%
    10:00 +15°C° 0.4 mm 4 mps 739 mmHg 68%
    11:00 +15°C° 0.7 mm 5 mps 739 mmHg 71%
    12:00 +15°C° 0.7 mm 5 mps 739 mmHg 74%
    13:00 +15°C° 0.7 mm 5 mps 739 mmHg 77%
    14:00 +14°C° 0.7 mm 5 mps 739 mmHg 80%
    15:00 +14°C° 0.7 mm 5 mps 739 mmHg 83%
    16:00 +13°C° 0.7 mm 5 mps 739 mmHg 85%
    17:00 +12°C° 0.2 mm 4 mps 739 mmHg 86%
    18:00 +12°C° 0.2 mm 4 mps 739 mmHg 86%
    19:00 +11°C° 0.2 mm 3 mps 739 mmHg 87%
    20:00 +10°C° 0 mm 3 mps 739 mmHg 88%
    21:00 +9°C° 0 mm 3 mps 739 mmHg 89%
    22:00 +8°C° 0 mm 3 mps 739 mmHg 89%
    23:00 +8°C° 0 mm 3 mps 739 mmHg 90%

    Tomorrow, 24 June, Sunday

    Time Temperature Precipitation Wind Pressure Humidity
    00:00 +8°C° 0 mm 3 mps 739 mmHg 91%
    01:00 +8°C° 0 mm 3 mps 739 mmHg 92%
    02:00 +8°C° 0 mm 3 mps 739 mmHg 93%
    03:00 +8°C° 0 mm 3 mps 739 mmHg 94%
    04:00 +8°C° 0 mm 3 mps 739 mmHg 95%
    05:00 +9°C° 0.2 mm 3 mps 739 mmHg 94%
    06:00 +10°C° 0.2 mm 3 mps 739 mmHg 92%
    07:00 +11°C° 0.2 mm 3 mps 739 mmHg 91%
    08:00 +11°C° 0.3 mm 3 mps 740 mmHg 88%
    09:00 +12°C° 0.3 mm 3 mps 740 mmHg 85%
    10:00 +13°C° 0.3 mm 3 mps 740 mmHg 83%
    11:00 +14°C° 0.5 mm 3 mps 740 mmHg 79%
    12:00 +15°C° 0.5 mm 4 mps 740 mmHg 75%
    13:00 +17°C° 0.5 mm 4 mps 740 mmHg 72%
    14:00 +17°C° 0.3 mm 3 mps 739 mmHg 70%
    15:00 +18°C° 0.3 mm 3 mps 739 mmHg 68%
    16:00 +18°C° 0.3 mm 3 mps 739 mmHg 66%
    17:00 +17°C° 0.1 mm 2 mps 739 mmHg 71%
    18:00 +16°C° 0.1 mm 2 mps 739 mmHg 77%
    19:00 +15°C° 0.1 mm 1 mps 739 mmHg 83%
    20:00 +13°C° 0 mm 1 mps 739 mmHg 85%
    21:00 +12°C° 0 mm 1 mps 740 mmHg 88%
    22:00 +11°C° 0 mm 1 mps 740 mmHg 91%
    23:00 +11°C° 0 mm 1 mps 740 mmHg 91%

    Day after tomorrow, 25 June, Monday

    Time Temperature Precipitation Wind Pressure Humidity
    00:00 +11°C° 0 mm 1 mps 740 mmHg 92%
    01:00 +10°C° 0 mm 1 mps 740 mmHg 93%
    02:00 +10°C° 0 mm 1 mps 740 mmHg 94%
    03:00 +10°C° 0 mm 1 mps 740 mmHg 94%
    04:00 +10°C° 0 mm 1 mps 740 mmHg 95%
    05:00 +11°C° 0 mm 1 mps 741 mmHg 90%
    06:00 +13°C° 0 mm 2 mps 741 mmHg 85%
    07:00 +15°C° 0 mm 2 mps 741 mmHg 80%
    08:00 +16°C° 0.3 mm 2 mps 741 mmHg 77%
    09:00 +17°C° 0.3 mm 2 mps 741 mmHg 75%
    10:00 +19°C° 0.3 mm 2 mps 741 mmHg 72%
    11:00 +19°C° 0.6 mm 2 mps 741 mmHg 72%
    12:00 +19°C° 0.6 mm 2 mps 741 mmHg 72%
    13:00 +20°C° 0.6 mm 2 mps 741 mmHg 72%
    14:00 +21°C° 0.6 mm 1 mps 741 mmHg 72%
    15:00 +21°C° 0.6 mm 1 mps 741 mmHg 72%
    16:00 +21°C° 0.6 mm 1 mps 741 mmHg 72%
    17:00 +20°C° 0.3 mm 1 mps 742 mmHg 75%
    18:00 +19°C° 0.3 mm 1 mps 742 mmHg 79%
    19:00 +18°C° 0.3 mm 1 mps 742 mmHg 82%
    20:00 +15°C° 0.1 mm 1 mps 742 mmHg 84%
    21:00 +13°C° 0.1 mm 0 mps 742 mmHg 86%
    22:00 +12°C° 0.1 mm 0 mps 743 mmHg 88%
    23:00 +12°C° 0 mm 0 mps 743 mmHg 88%

    26 June, Tuesday

    Time Temperature Precipitation Wind Pressure Humidity
    00:00 +12°C° 0 mm 1 mps 743 mmHg 89%
    01:00 +12°C° 0 mm 1 mps 743 mmHg 90%
    02:00 +12°C° 0 mm 1 mps 743 mmHg 91%
    03:00 +12°C° 0 mm 1 mps 743 mmHg 91%
    04:00 +11°C° 0 mm 1 mps 743 mmHg 92%
    05:00 +13°C° 0 mm 1 mps 743 mmHg 88%
    06:00 +15°C° 0 mm 1 mps 744 mmHg 84%
    07:00 +17°C° 0 mm 2 mps 744 mmHg 80%
    08:00 +19°C° 0 mm 2 mps 744 mmHg 71%
    09:00 +20°C° 0 mm 2 mps 744 mmHg 63%
    10:00 +23°C° 0 mm 2 mps 744 mmHg 55%
    11:00 +24°C° 0 mm 2 mps 744 mmHg 52%
    12:00 +24°C° 0 mm 3 mps 744 mmHg 50%
    13:00 +25°C° 0 mm 3 mps 744 mmHg 48%
    14:00 +25°C° 0 mm 3 mps 744 mmHg 50%
    15:00 +25°C° 0 mm 3 mps 744 mmHg 52%
    16:00 +24°C° 0 mm 3 mps 744 mmHg 54%
    17:00 +22°C° 0 mm 3 mps 744 mmHg 62%
    18:00 +20°C° 0 mm 2 mps 744 mmHg 69%
    19:00 +19°C° 0 mm 2 mps 744 mmHg 76%
    20:00 +18°C° 0 mm 2 mps 744 mmHg 79%
    21:00 +16°C° 0 mm 2 mps 744 mmHg 82%
    22:00 +15°C° 0 mm 2 mps 744 mmHg 85%
    23:00 +14°C° 0 mm 1 mps 744 mmHg 86%

    27 June, Wednesday

    Time Temperature Precipitation Wind Pressure Humidity
    00:00 +13°C° 0 mm 1 mps 744 mmHg 86%
    01:00 +13°C° 0 mm 1 mps 744 mmHg 87%
    02:00 +13°C° 0 mm 1 mps 744 mmHg 88%
    03:00 +12°C° 0 mm 1 mps 744 mmHg 88%
    04:00 +12°C° 0 mm 1 mps 744 mmHg 89%
    05:00 +14°C° 0 mm 2 mps 744 mmHg 84%
    06:00 +16°C° 0 mm 2 mps 744 mmHg 79%
    07:00 +18°C° 0 mm 2 mps 744 mmHg 74%
    08:00 +19°C° 0.1 mm 2 mps 744 mmHg 70%
    09:00 +21°C° 0.1 mm 3 mps 744 mmHg 66%
    10:00 +22°C° 0.1 mm 3 mps 744 mmHg 62%
    11:00 +24°C° 0.1 mm 3 mps 743 mmHg 60%
    12:00 +23°C° 0.1 mm 4 mps 743 mmHg 59%
    13:00 +25°C° 0.1 mm 4 mps 743 mmHg 57%
    14:00 +23°C° 0.1 mm 4 mps 743 mmHg 58%
    15:00 +23°C° 0.1 mm 4 mps 743 mmHg 59%
    16:00 +23°C° 0.1 mm 4 mps 742 mmHg 61%
    17:00 +22°C° 0.1 mm 4 mps 743 mmHg 67%
    18:00 +20°C° 0.1 mm 3 mps 743 mmHg 74%
    19:00 +19°C° 0.1 mm 3 mps 743 mmHg 80%
    20:00 +18°C° 0 mm 2 mps 743 mmHg 82%
    21:00 +17°C° 0 mm 2 mps 743 mmHg 85%
    22:00 +16°C° 0 mm 2 mps 743 mmHg 87%
    23:00 +15°C° 0 mm 1 mps 743 mmHg 89%

    28 June, Thursday

    Time Temperature Precipitation Wind Pressure Humidity
    00:00 +14°C° 0 mm 1 mps 743 mmHg 90%
    01:00 +14°C° 0 mm 1 mps 743 mmHg 92%
    02:00 +13°C° 0 mm 1 mps 743 mmHg 93%
    03:00 +13°C° 0 mm 1 mps 743 mmHg 94%
    04:00 +13°C° 0 mm 1 mps 743 mmHg 95%
    05:00 +14°C° 0 mm 2 mps 743 mmHg 89%
    06:00 +16°C° 0 mm 2 mps 744 mmHg 84%
    07:00 +18°C° 0 mm 3 mps 744 mmHg 79%
    08:00 +19°C° 0 mm 3 mps 744 mmHg 73%
    09:00 +21°C° 0 mm 4 mps 744 mmHg 67%
    10:00 +22°C° 0 mm 5 mps 744 mmHg 61%
    11:00 +23°C° 0.1 mm 5 mps 743 mmHg 58%
    12:00 +25°C° 0.1 mm 5 mps 743 mmHg 56%
    13:00 +25°C° 0.1 mm 5 mps 743 mmHg 54%
    14:00 +25°C° 0.1 mm 5 mps 743 mmHg 55%
    15:00 +25°C° 0.1 mm 5 mps 743 mmHg 57%
    16:00 +25°C° 0.1 mm 5 mps 742 mmHg 58%
    17:00 +23°C° 0.1 mm 4 mps 742 mmHg 64%
    18:00 +21°C° 0.1 mm 3 mps 743 mmHg 70%
    19:00 +20°C° 0.1 mm 3 mps 743 mmHg 77%
    20:00 +18°C° 0 mm 2 mps 743 mmHg 80%
    21:00 +17°C° 0 mm 2 mps 743 mmHg 83%
    22:00 +16°C° 0 mm 1 mps 743 mmHg 86%
    23:00 +16°C° 0 mm 1 mps 743 mmHg 88%
    Show more